Montrose, CO

7:45 PM MST on February 13, 2016 (GMT -0700)
Montrose Regional

Weather History for KMTJ - June, 2012

Change the Weather History Date:

Friday, June 15, 2012

  Actual Average Record
Temperature  
Mean Temperature 74 °F 68 °F  
Max Temperature 93 °F 85 °F - ()
Min Temperature 55 °F 52 °F - ()
Degree Days  
Heating Degree Days 0 1  
Month to date heating degree days 6 33  
Since 1 June heating degree days 6 33  
Since 1 July heating degree days 5665 6197  
Cooling Degree Days 9 4  
Month to date cooling degree days 83 47  
Year to date cooling degree days 106 64  
Since 1 June cooling degree days 83 47  
Growing Degree Days 24 (Base 50)    
Moisture  
Dew Point 18 °F    
Average Humidity 17    
Maximum Humidity 28    
Minimum Humidity 5    
Precipitation  
Precipitation 0.00 in 0.03 in - ()
Month to date precipitation 0.00 0.33  
Year to date precipitation 1.56 4.63  
Sea Level Pressure  
Sea Level Pressure 29.72 in    
Wind  
Wind Speed 10 mph (SSW)    
Max Wind Speed 25 mph    
Max Gust Speed 37 mph    
Visibility 10 miles    
Events      
T = Trace of Precipitation, MM = Missing Value Source: NWS Daily Summary

Daily Weather History Graph

Daily Weather History Graph

Search for Another Location

Airport or City:

Trip Planner

Search our weather history database for the weather conditions in past years. The results will help you decide how hot, cold, wet, or windy it might be!

Date:

Astronomy

Jun. 15, 2012 Rise Set
Actual Time 5:46 AM MDT 8:37 PM MDT
Civil Twilight 5:15 AM MDT 9:09 PM MDT
Nautical Twilight 4:35 AM MDT 9:49 PM MDT
Astronomical Twilight 3:49 AM MDT 10:35 PM MDT
Moon 3:01 AM MDT (6/15) 5:21 PM MDT (6/15)
Length of Visible Light 15h 54m
Length of Day
14h 50m
Waning Crescent, 13% of the Moon is Illuminated
Jun 15
Waning Crescent
Jun 19
New
Jun 26
First Quarter
Jul 3
Full
Jul 10
Last Quarter

Hourly Weather History & Observations

Time (MDT) Temp. Dew Point Humidity Pressure Visibility Wind Dir Wind Speed Gust Speed Precip Events Conditions
12:53 AM 64.0 °F 27.0 °F 25% 29.68 in 10.0 mi SSE 13.8 mph - N/A   Clear
1:53 AM 63.0 °F 24.1 °F 23% 29.67 in 10.0 mi SE 12.7 mph - N/A   Clear
2:53 AM 62.1 °F 23.0 °F 22% 29.70 in 10.0 mi ESE 10.4 mph - N/A   Clear
3:53 AM 57.9 °F 21.0 °F 24% 29.71 in 10.0 mi ESE 5.8 mph - N/A   Clear
4:53 AM 55.9 °F 23.0 °F 28% 29.73 in 10.0 mi SSE 6.9 mph - N/A   Clear
5:53 AM 57.0 °F 19.9 °F 24% 29.73 in 10.0 mi SE 8.1 mph - N/A   Clear
6:53 AM 57.0 °F 24.1 °F 28% 29.75 in 10.0 mi SSE 5.8 mph - N/A   Clear
7:53 AM 66.0 °F 23.0 °F 20% 29.75 in 10.0 mi East 4.6 mph - N/A   Clear
8:53 AM 71.1 °F 25.0 °F 18% 29.75 in 10.0 mi Calm Calm - N/A   Clear
9:53 AM 75.9 °F 27.0 °F 16% 29.75 in 10.0 mi NNW 4.6 mph - N/A   Clear
10:53 AM 82.9 °F 24.1 °F 12% 29.75 in 10.0 mi NNW 5.8 mph - N/A   Clear
11:53 AM 87.1 °F 18.0 °F 8% 29.73 in 10.0 mi North 5.8 mph - N/A   Clear
12:53 PM 89.1 °F 15.1 °F 6% 29.70 in 10.0 mi Variable 5.8 mph - N/A   Clear
1:45 PM 91.4 °F 8.6 °F 5% 29.96 in 10.0 mi West 17.3 mph 28.8 mph N/A   Clear
1:53 PM 91.9 °F 10.9 °F 5% 29.68 in 10.0 mi West 20.7 mph 26.5 mph N/A   Clear
2:53 PM 93.0 °F 12.9 °F 5% 29.67 in 10.0 mi West 16.1 mph 29.9 mph N/A   Clear
3:53 PM 93.0 °F 15.1 °F 6% 29.67 in 10.0 mi WSW 21.9 mph 29.9 mph N/A   Clear
4:53 PM 93.0 °F 17.1 °F 6% 29.67 in 10.0 mi WSW 18.4 mph 28.8 mph N/A   Clear
5:53 PM 91.9 °F 12.9 °F 5% 29.66 in 10.0 mi West 20.7 mph 31.1 mph N/A   Clear
6:53 PM 89.1 °F 10.9 °F 5% 29.70 in 10.0 mi WSW 16.1 mph - N/A   Clear
7:53 PM 86.0 °F 10.9 °F 6% 29.70 in 10.0 mi West 17.3 mph 24.2 mph N/A   Clear
8:53 PM 81.0 °F 12.9 °F 8% 29.72 in 10.0 mi West 6.9 mph - N/A   Clear
9:53 PM 73.9 °F 18.0 °F 12% 29.75 in 10.0 mi ESE 10.4 mph - N/A   Clear
10:53 PM 71.1 °F 18.0 °F 13% 29.75 in 10.0 mi SSE 4.6 mph - N/A   Clear
11:53 PM 68.0 °F 18.0 °F 15% 29.75 in 10.0 mi ESE 4.6 mph - N/A   Clear